Weather History for KW22 - September, 2014

Change the Weather History Date:

Wednesday, September 10, 2014

  Actual Average (KEKN) Record (KEKN)
Temperature  
Mean Temperature 71 °F 64 °F  
Max Temperature 82 °F 76 °F 90 °F (1964)
Min Temperature 60 °F 53 °F 35 °F (1914)
Degree Days  
Heating Degree Days 0 3  
Month to date heating degree days 19  
Since 1 July heating degree days 49  
Cooling Degree Days 6 2  
Month to date cooling degree days 25  
Year to date cooling degree days 451  
Growing Degree Days 21 (Base 50)    
Moisture  
Dew Point 63 °F    
Average Humidity 76    
Maximum Humidity 100    
Minimum Humidity 54    
Precipitation  
Precipitation 0.00 in 0.12 in 1.89 in (2000)
Month to date precipitation 1.21  
Year to date precipitation 34.02  
Snow  
Snow 0.00 in - - ()
Month to date snowfall  
Since 1 September snowfall  
Snow Depth -    
Sea Level Pressure  
Sea Level Pressure 30.03 in    
Wind  
Wind Speed 3 mph (South)    
Max Wind Speed 15 mph    
Max Gust Speed 18 mph    
Visibility 10 miles    
Events      
T = Trace of Precipitation, MM = Missing Value Source: NWS Daily Summary

Daily Weather History Graph

Daily Weather History Graph

Search for Another Location

Airport or City:

Trip Planner

Search our weather history database for the weather conditions in past years. The results will help you decide how hot, cold, wet, or windy it might be!

Date:

Astronomy

Sep. 10, 2014 Rise Set
Actual Time 6:57 AM EDT 7:37 PM EDT
Civil Twilight 6:31 AM EDT 8:04 PM EDT
Nautical Twilight 5:59 AM EDT 8:36 PM EDT
Astronomical Twilight 5:26 AM EDT 9:08 PM EDT
Moon 8:36 PM EDT (9/10) 8:42 AM EDT (9/10)
Length of Visible Light 13h 33m
Length of Day
12h 39m
Waning Gibbous, 96% of the Moon is Illuminated
Sep 10
Waning Gibbous
Sep 15
Last Quarter
Sep 24
New
Oct 1
First Quarter
Oct 8
Full

Hourly Weather History & Observations

Time (EDT) Temp. Heat Index Dew Point Humidity Pressure Visibility Wind Dir Wind Speed Gust Speed Precip Events Conditions
12:15 AM 66.2 °F - 62.6 °F 88% 30.09 in 10.0 mi Calm Calm - N/A   Unknown
12:35 AM 66.2 °F - 64.4 °F 94% 30.09 in 10.0 mi Calm Calm - N/A   Clear
1:15 AM 66.2 °F - 62.6 °F 88% 30.08 in 10.0 mi Calm Calm - N/A   Scattered Clouds
1:35 AM 66.2 °F - 62.6 °F 88% 30.08 in 10.0 mi SE 4.6 mph - N/A   Partly Cloudy
1:55 AM 66.2 °F - 62.6 °F 88% 30.08 in 10.0 mi Calm Calm - N/A   Clear
2:15 AM 66.2 °F - 62.6 °F 88% 30.08 in 10.0 mi Calm Calm - N/A   Clear
2:35 AM 66.2 °F - 60.8 °F 83% 30.08 in 10.0 mi Calm Calm - N/A   Clear
2:55 AM 64.4 °F - 60.8 °F 88% 30.07 in 10.0 mi Calm Calm - N/A   Clear
3:15 AM 64.4 °F - 62.6 °F 94% 30.07 in 10.0 mi Calm Calm - N/A   Clear
3:35 AM 64.4 °F - 62.6 °F 94% 30.07 in 10.0 mi ESE 3.5 mph - N/A   Clear
3:55 AM 64.4 °F - 64.4 °F 100% 30.07 in 10.0 mi Calm Calm - N/A   Clear
4:15 AM 64.4 °F - 62.6 °F 94% 30.07 in 10.0 mi Calm Calm - N/A   Clear
4:35 AM 62.6 °F - 62.6 °F 100% 30.08 in 10.0 mi Calm Calm - N/A   Clear
4:55 AM 62.6 °F - 62.6 °F 100% 30.07 in 10.0 mi Calm Calm - N/A   Clear
5:15 AM 62.6 °F - 60.8 °F 94% 30.07 in 10.0 mi Calm Calm - N/A   Clear
5:35 AM 62.6 °F - 62.6 °F 100% 30.07 in 10.0 mi Calm Calm - N/A   Clear
5:55 AM 62.6 °F - 62.6 °F 100% 30.07 in 10.0 mi Calm Calm - N/A   Clear
6:15 AM 62.6 °F - 62.6 °F 100% 30.07 in 10.0 mi Calm Calm - N/A   Clear
6:35 AM 60.8 °F - 60.8 °F 100% 30.07 in 10.0 mi Calm Calm - N/A   Clear
6:55 AM 60.8 °F - 60.8 °F 100% 30.06 in 10.0 mi Calm Calm - N/A   Clear
7:15 AM 62.6 °F - 60.8 °F 94% 30.06 in 10.0 mi Calm Calm - N/A   Clear
7:35 AM 62.6 °F - 60.8 °F 94% 30.07 in 10.0 mi Calm Calm - N/A   Clear
7:55 AM 64.4 °F - 60.8 °F 88% 30.07 in 10.0 mi Calm Calm - N/A   Clear
8:15 AM 64.4 °F - 60.8 °F 88% 30.08 in 10.0 mi Calm Calm - N/A   Clear
8:35 AM 64.4 °F - 60.8 °F 88% 30.08 in 10.0 mi Calm Calm - N/A   Clear
8:55 AM 66.2 °F - 60.8 °F 83% 30.08 in 10.0 mi Calm Calm - N/A   Clear
9:15 AM 69.8 °F - 62.6 °F 78% 30.09 in 10.0 mi Calm Calm - N/A   Clear
9:35 AM 69.8 °F - 62.6 °F 78% 30.09 in 10.0 mi South 4.6 mph - N/A   Clear
9:55 AM 71.6 °F - 62.6 °F 73% 30.09 in 10.0 mi South 5.8 mph - N/A   Clear
10:15 AM 75.2 °F - 64.4 °F 69% 30.10 in 10.0 mi South 6.9 mph 12.7 mph N/A   Clear
10:35 AM 77.0 °F - 64.4 °F 65% 30.09 in 10.0 mi SSW 8.1 mph - N/A   Scattered Clouds
10:55 AM 77.0 °F - 64.4 °F 65% 30.09 in 10.0 mi SSW 13.8 mph - N/A   Scattered Clouds
11:35 AM 77.0 °F - 64.4 °F 65% 30.08 in 10.0 mi SSW 11.5 mph - N/A   Scattered Clouds
11:55 AM 77.0 °F - 66.2 °F 69% 30.07 in 10.0 mi SSW 10.4 mph - N/A   Scattered Clouds
12:15 PM 78.8 °F - 66.2 °F 65% 30.06 in 10.0 mi SSW 10.4 mph - N/A   Partly Cloudy
12:35 PM 78.8 °F - 64.4 °F 61% 30.06 in 10.0 mi SSW 11.5 mph - N/A   Partly Cloudy
12:55 PM 78.8 °F - 64.4 °F 61% 30.06 in 10.0 mi SSW 12.7 mph - N/A   Mostly Cloudy
1:15 PM 80.6 °F 82.7 °F 66.2 °F 61% 30.05 in 10.0 mi Variable 5.8 mph 15.0 mph N/A   Scattered Clouds
1:35 PM 80.6 °F 82.3 °F 64.4 °F 58% 30.05 in 10.0 mi South 13.8 mph - N/A   Scattered Clouds
1:55 PM 80.6 °F 81.8 °F 62.6 °F 54% 30.04 in 10.0 mi South 12.7 mph - N/A   Mostly Cloudy
2:15 PM 82.4 °F 83.9 °F 64.4 °F 54% 30.03 in 10.0 mi South 15.0 mph - N/A   Scattered Clouds
2:35 PM 80.6 °F 82.3 °F 64.4 °F 58% 30.02 in 10.0 mi South 11.5 mph - N/A   Scattered Clouds
2:55 PM 80.6 °F 82.3 °F 64.4 °F 58% 30.02 in 10.0 mi SSW 10.4 mph - N/A   Scattered Clouds
3:15 PM 80.6 °F 82.3 °F 64.4 °F 58% 30.01 in 10.0 mi SSW 10.4 mph 18.4 mph N/A   Mostly Cloudy
3:35 PM 80.6 °F 82.3 °F 64.4 °F 58% 30.00 in 10.0 mi SSW 10.4 mph - N/A   Mostly Cloudy
3:55 PM 80.6 °F 82.3 °F 64.4 °F 58% 30.00 in 10.0 mi SW 10.4 mph - N/A   Partly Cloudy
4:15 PM 80.6 °F 82.3 °F 64.4 °F 58% 30.00 in 10.0 mi South 10.4 mph - N/A   Scattered Clouds
4:35 PM 82.4 °F 83.9 °F 64.4 °F 54% 29.99 in 10.0 mi South 11.5 mph - N/A   Scattered Clouds
4:55 PM 80.6 °F 82.3 °F 64.4 °F 58% 29.97 in 10.0 mi South 10.4 mph - N/A   Partly Cloudy
5:15 PM 78.8 °F - 64.4 °F 61% 29.97 in 10.0 mi South 13.8 mph - N/A   Partly Cloudy
5:35 PM 80.6 °F 82.3 °F 64.4 °F 58% 29.96 in 10.0 mi South 6.9 mph - N/A   Clear
5:55 PM 78.8 °F - 64.4 °F 61% 29.96 in 10.0 mi South 10.4 mph - N/A   Clear
6:15 PM 78.8 °F - 64.4 °F 61% 29.97 in 10.0 mi SSW 6.9 mph - N/A   Clear
6:35 PM 77.0 °F - 64.4 °F 65% 29.97 in 10.0 mi SSW 5.8 mph - N/A   Clear
6:55 PM 77.0 °F - 64.4 °F 65% 29.96 in 10.0 mi South 5.8 mph - N/A   Clear
7:15 PM 77.0 °F - 64.4 °F 65% 29.96 in 10.0 mi South 6.9 mph - N/A   Clear
7:35 PM 75.2 °F - 64.4 °F 69% 29.95 in 10.0 mi South 11.5 mph - N/A   Clear
7:55 PM 75.2 °F - 64.4 °F 69% 29.96 in 10.0 mi South 5.8 mph - N/A   Clear
8:15 PM 73.4 °F - 62.6 °F 69% 29.96 in 10.0 mi South 5.8 mph - N/A   Clear
8:35 PM 73.4 °F - 62.6 °F 69% 29.96 in 10.0 mi South 5.8 mph - N/A   Clear
8:55 PM 71.6 °F - 62.6 °F 73% 29.96 in 10.0 mi South 3.5 mph - N/A   Clear
9:15 PM 71.6 °F - 62.6 °F 73% 29.96 in 10.0 mi SSW 3.5 mph - N/A   Clear
9:35 PM 71.6 °F - 62.6 °F 73% 29.96 in 10.0 mi Calm Calm - N/A   Clear
9:55 PM 71.6 °F - 62.6 °F 73% 29.96 in 10.0 mi South 5.8 mph - N/A   Clear
10:15 PM 71.6 °F - 62.6 °F 73% 29.96 in 10.0 mi SSW 4.6 mph - N/A   Clear
10:35 PM 69.8 °F - 62.6 °F 78% 29.96 in 10.0 mi South 5.8 mph - N/A   Clear
10:55 PM 69.8 °F - 62.6 °F 78% 29.97 in 10.0 mi South 5.8 mph - N/A   Clear
11:15 PM 69.8 °F - 62.6 °F 78% 29.96 in 10.0 mi South 4.6 mph - N/A   Clear
11:35 PM 69.8 °F - 62.6 °F 78% 29.96 in 10.0 mi South 6.9 mph - N/A   Clear
11:55 PM 69.8 °F - 62.6 °F 78% 29.96 in 10.0 mi South 5.8 mph - N/A   Clear